FW9684 Weather Reports


time (UTC)temp
F
wind
direction
speed
knots
gust
knots
rain 1hr
in
rain 24hr
in
rain mn
in
humidity
%
barometer
mb
20260510071533 77 111 7.8 20.0 0.00 0.00 0.00 56 1005.5
20260510070029 78 111 10.4 21.7 0.00 0.00 0.00 54 1005.5
20260510064527 79 124 9.6 16.5 0.00 0.00 0.00 52 1005.5
20260510063022 79 119 9.6 18.2 0.00 0.00 0.00 51 1005.6
20260510061527 79 104 8.7 16.5 0.00 0.00 0.00 51 1005.8
20260510060031 80 110 8.7 20.9 0.00 0.00 0.00 50 1005.8
20260510054512 80 117 8.7 20.0 0.00 0.00 0.00 51 1006.0
20260510053009 79 96 8.7 18.2 0.00 0.00 0.00 51 1005.9
20260510051507 79 118 7.8 16.5 0.00 0.00 0.00 51 1006.0
20260510050003 80 114 7.0 17.4 0.00 0.00 0.00 51 1006.1
20260510044502 80 119 8.7 15.6 0.00 0.00 0.00 50 1006.0
20260510043005 80 117 7.8 16.5 0.00 0.00 0.00 48 1006.0
20260510041508 80 119 9.6 20.9 0.00 0.00 0.00 47 1006.1
20260510040101 81 105 10.4 20.0 0.00 0.00 0.00 46 1005.9
20260510034600 81 106 9.6 16.5 0.00 0.00 0.00 44 1006.1
20260510033100 81 105 9.6 17.4 0.00 0.00 0.00 43 1006.0
20260510031627 82 111 7.0 13.9 0.00 0.00 0.00 43 1006.1
20260510030057 82 123 8.7 13.9 0.00 0.00 0.00 41 1006.1
20260510024556 82 101 7.0 15.6 0.00 0.00 0.00 39 1005.9
20260510023100 83 105 9.6 14.8 0.00 0.00 0.00 39 1005.8
20260510021555 84 100 8.7 16.5 0.00 0.00 0.00 38 1005.8
20260510020054 84 111 9.6 17.4 0.00 0.00 0.00 37 1005.7
20260510014554 85 103 10.4 15.6 0.00 0.00 0.00 36 1005.6
20260510013054 86 92 9.6 17.4 0.00 0.00 0.00 34 1005.4
20260510011608 87 123 9.6 17.4 0.00 0.00 0.00 32 1005.3
20260510010104 88 109 9.6 17.4 0.00 0.00 0.00 31 1005.3
20260510004552 90 106 7.8 14.8 0.00 0.00 0.00 31 1005.1
20260510003051 91 117 6.1 16.5 0.00 0.00 0.00 29 1005.2
20260510001550 92 99 7.0 13.9 0.00 0.00 0.00 29 1005.3
20260510000050 93 86 7.0 14.8 0.00 0.00 0.00 29 1005.3
20260509234549 94 94 7.0 12.2 0.00 0.00 0.00 28 1005.3
20260509233048 94 92 5.2 11.3 0.00 0.00 0.00 28 1005.5
20260509231557 94 104 5.2 11.3 0.00 0.00 0.00 29 1005.5
20260509230046 95 141 8.7 17.4 0.00 0.00 0.00 27 1005.6
20260509224543 94 91 4.3 12.2 0.00 0.00 0.00 27 1005.8
20260509223042 95 116 3.5 13.0 0.00 0.00 0.00 26 1005.9
20260509221540 94 103 2.6 11.3 0.00 0.00 0.00 27 1006.1
20260509220038 95 144 7.8 14.8 0.00 0.00 0.00 26 1006.2
20260509214535 94 94 6.1 13.9 0.00 0.00 0.00 27 1006.5
20260509213035 95 94 5.2 12.2 0.00 0.00 0.00 26 1006.6
20260509211558 94 159 4.3 14.8 0.00 0.00 0.00 26 1006.6
20260509210027 95 115 7.0 15.6 0.00 0.00 0.00 25 1007.0
20260509204524 94 117 5.2 13.0 0.00 0.00 0.00 25 1007.1
20260509203037 93 140 4.3 13.0 0.00 0.00 0.00 26 1007.3
20260509201521 94 111 7.0 13.0 0.00 0.00 0.00 27 1007.6
20260509200015 93 101 1.7 12.2 0.00 0.00 0.00 29 1007.8
20260509194511 93 144 5.2 9.6 0.00 0.00 0.00 28 1007.8
20260509193009 92 140 7.0 14.8 0.00 0.00 0.00 31 1007.9
20260509191505 92 105 4.3 13.0 0.00 0.00 0.00 33 1008.1
20260509190106 91 120 5.2 17.4 0.00 0.00 0.00 35 1008.1
20260509184556 91 134 6.1 13.0 0.00 0.00 0.00 35 1008.4
20260509183055 92 90 3.5 10.4 0.00 0.00 0.00 34 1008.7
20260509181604 90 144 3.5 19.1 0.00 0.00 0.00 36 1008.9
20260509180043 90 96 8.7 14.8 0.00 0.00 0.00 37 1009.2
20260509174541 89 111 7.0 12.2 0.00 0.00 0.00 38 1009.4
20260509173035 87 111 6.1 13.9 0.00 0.00 0.00 41 1009.4
20260509171532 87 101 5.2 13.9 0.00 0.00 0.00 42 1009.7
20260509170031 86 144 5.2 15.6 0.00 0.00 0.00 43 1009.7
20260509164528 85 140 7.8 13.0 0.00 0.00 0.00 46 1009.7
20260509163029 84 143 7.0 13.9 0.00 0.00 0.00 48 1009.8
20260509161521 82 140 7.8 15.6 0.00 0.00 0.00 52 1010.0
20260509160018 81 129 7.8 14.8 0.00 0.00 0.00 56 1010.2
20260509154516 80 125 7.0 13.9 0.00 0.00 0.00 60 1010.3
20260509153019 79 148 7.8 15.6 0.00 0.00 0.00 62 1010.4
20260509151508 77 144 7.0 13.9 0.00 0.00 0.00 64 1010.3
20260509150006 76 128 6.1 14.8 0.00 0.00 0.00 68 1010.5
20260509144503 75 100 5.2 11.3 0.00 0.00 0.00 72 1010.6
20260509143109 74 132 7.8 13.0 0.00 0.00 0.00 74 1010.5
20260509141555 72 136 6.1 13.0 0.00 0.00 0.00 76 1010.7
20260509140105 71 134 7.0 12.2 0.00 0.00 0.00 78 1011.1
20260509134557 70 118 2.6 13.9 0.00 0.00 0.00 81 1011.1
20260509133102 69 120 4.3 11.3 0.00 0.00 0.00 83 1011.1
20260509131555 68 129 3.5 8.7 0.00 0.00 0.00 86 1011.1
20260509130050 67 152 1.7 6.1 0.00 0.00 0.00 89 1011.1
20260509124553 66 129 0.9 6.1 0.00 0.00 0.00 89 1010.9
20260509123047 66 111 2.6 7.8 0.00 0.00 0.00 89 1010.8
20260509121543 66 130 3.5 8.7 0.00 0.00 0.00 89 1010.4
20260509120042 66 109 4.3 8.7 0.00 0.00 0.00 89 1010.1
20260509114552 67 105 4.3 10.4 0.00 0.00 0.00 88 1009.9
20260509113043 67 103 3.5 7.0 0.00 0.00 0.00 88 1009.8
20260509111539 67 107 3.5 13.0 0.00 0.00 0.00 88 1009.3
20260509110037 67 113 7.0 12.2 0.00 0.00 0.00 89 1009.3
20260509104537 67 107 5.2 10.4 0.00 0.00 0.00 90 1009.3
20260509103036 67 118 5.2 10.4 0.00 0.00 0.00 90 1009.3
20260509101533 66 105 6.1 9.6 0.00 0.00 0.00 90 1009.3
20260509100031 66 95 4.3 11.3 0.00 0.00 0.00 90 1009.2
20260509094528 65 84 3.5 7.0 0.00 0.00 0.00 89 1009.2
20260509093027 65 87 2.6 5.2 0.00 0.00 0.00 87 1009.3
20260509091532 65 92 3.5 7.0 0.00 0.00 0.00 87 1009.2
20260509090025 66 83 2.6 7.0 0.00 0.00 0.00 86 1009.2
20260509084527 66 97 2.6 7.0 0.00 0.00 0.00 84 1009.5
20260509083021 67 83 3.5 8.7 0.00 0.00 0.00 82 1009.7
20260509081518 67 84 1.7 4.3 0.00 0.00 0.00 80 1010.0
20260509080023 67 63 4.3 8.7 0.00 0.00 0.00 81 1010.2
20260509074513 66 70 7.8 10.4 0.00 0.00 0.00 82 1010.1
20260509073028 65 73 5.2 8.7 0.00 0.00 0.00 84 1010.1